星链-4652 (STARLINK-4652 )

导读

STARLINK-4652是美国SpaceX公司星链星座中的一颗通信卫星,属于星链V1.5批次,于2022年9月5日发射。该卫星重量约295公斤,运行在550公里左右近地轨道,轨道倾角53度,配备氪离子霍尔推进器用于轨道维持与机动规避,搭载Ku/Ka波段相控阵通信载荷与激光星间链路。作为全球低轨互联网星座组成部分,它旨在为全球提供高速低延迟宽带互联网服务,目前仍在正常服役中,设计寿命约5年。

基本信息
目录编号:
53736
目录名称:
STARLINK-4652
国际标识:
2022-107AN
轨道中心:
EARTH
卫星名称:
星链-4652
卫星全名:
星链-4652 (STARLINK-4652 )
卫星状态:
在轨 (已飞行1381 天)
发射日期:
2022-09-05 UTC
国别 :
美国 (US)
星等 :
--
轨道信息
数据来源 国际轨道数据 AOE轨道数据
星历时间 2026-06-17T01:40:53+0800
14小时前
查看轨道信息
2026-06-16T06:00:00+0800
1天前
查看轨道信息
半长轴 6917.904km 6917.911km
偏心率 0.0001217 0.0001791
轨道倾角 53.159° 53.158°
近地点辐角 84.570° 54.293°
升交点赤经 169.579° 173.266°
平近点角 275.543° 169.000°
近地点 538.925km 538.535km
远地点 540.609km 541.013km
周期 95.438分钟 95.438分钟
每日圈数 15.088326 15.088302
详细信息
固有亮度:
5
最大亮度:
2.5
卫星平台:
Starlink v1.5
覆盖范围:
全球
运营商:
太空探索技术公司
运营商所在国:
美国
制造商(研发单位):
太空探索技术公司
制造商所在国:
美国
使用方式:
暂无
卫星简介
星链(Starlink)计划是由太空探索技术公司(SpaceX)提出的一个巨型低轨卫星互联网星座项目,计划在2019年至2024年间在太空搭建由约1.2万颗卫星组成的“星链”网络,其中1584颗将部署在地球上空550千米处的近地轨道,并从2020年开始工作。该卫星仍在工作。
2D轨道图
3D轨道图
轨道高度分析图
轨道倾角分析图
轨道综合分析图
查看轨道综合分析图